Terminal Aerodrome Forecast
Issued by NWS St Louis, MO

Home | Current Version | Previous Version | Text Only | Print | Product List | Glossary On
Versions: 1 2 3 4 5 6 7 8 9 10 11 12 13 14 15 16 17 18 19 20 21 22 23 24 25 26 27 28 29 30 31 32
000
FTUS43 KLSX 260251 AAA
TAFSTL
TAF AMD
KSTL 260251Z 2603/2706 16005KT P6SM SCT150
     FM261000 15006KT P6SM BKN060
     FM261700 19012KT P6SM BKN040
     FM270200 21005KT P6SM BKN040=

USA.gov is the U.S. government's official web portal to all federal, state and local government web resources and services.